Simultaneous Nadir Overpasses (SNOs) Predictions

Prediction of SNOs between NOAA-19 and NPP Satellite Orbit:

Table of predicted SNOs for the next 14.0 days since TLE Epoch: 7/18/2020
Index Date (NOAA-19) Time (NOAA-19) Lat,Lon (NOAA-19) SZA (NOAA-19 ) Date (NPP) Time (NPP) Lat,Lon (NPP) SZA (NPP ) Distance(km) Time Diff (sec)
1 07/31/2020 03:23:59 -79.17, -83.24 117.08 07/31/2020 03:25:13 -79.20, -83.31 117.08 3.18 74
2 07/31/2020 04:14:55 79.18, 84.10 62.94 07/31/2020 04:15:58 79.19, 84.07 62.92 1.01 63
3 07/31/2020 05:05:59 -79.19,-108.59 117.06 07/31/2020 05:06:43 -79.20,-108.70 117.06 2.49 44
4 07/31/2020 05:56:55 79.20, 58.75 62.95 07/31/2020 05:57:28 79.19, 58.68 62.94 1.54 33
5 07/31/2020 06:47:59 -79.21,-133.95 117.05 07/31/2020 06:48:13 -79.20,-134.09 117.04 2.97 14
6 07/31/2020 07:38:55 79.22, 33.40 62.96 07/31/2020 07:38:58 79.19, 33.29 62.96 3.28 3
7 07/31/2020 08:30:00 -79.19,-159.57 117.03 07/31/2020 08:29:43 -79.21,-159.48 117.02 2.34 17
8 07/31/2020 09:20:56 79.20, 7.78 62.98 07/31/2020 09:20:28 79.20, 7.90 62.98 2.68 28
9 07/31/2020 10:12:00 -79.21, 175.08 117.01 07/31/2020 10:11:13 -79.21, 175.13 117.00 1.18 47
10 07/31/2020 11:02:56 79.22, -17.57 63.00 07/31/2020 11:01:58 79.20, -17.49 63.00 2.93 58
11 07/31/2020 11:53:58 -79.29, 150.27 117.01 07/31/2020 11:52:45 -79.28, 149.22 116.87 21.59 73
